Regional Weather Roundup
Issued by NWS

Home | Current Version | Previous Version | Graphics & Text | Print | Product List | Glossary On
Versions: 1 2 3 4 5 6 7 8 9 10 11 12 13 14 15 16 17 18 19 20 21 22 23 24 25 26 27 28 29 30 31 32 33 34 35 36 37 38 39 40 41 42 43 44 45 46 47 48 49
000
ASUS45 KBOU 060407
RWRCO

WEATHER ROUNDUP FOR COLORADO
NATIONAL WEATHER SERVICE DENVER/BOULDER CO
900 PM MST THU MAR 05 2015

NOTE: "FAIR" INDICATES FEW OR NO CLOUDS BELOW 12000 FEET WITH NO
SIGNIFICANT WEATHER AND/OR OBSTRUCTIONS TO VISIBILITY.

COZ001>005-013-030-031-060500-
...NORTHWEST COLORADO...

CITY           SKY/WX    TMP DP  RH WIND       PRES   REMARKS
CRAIG          PTCLDY    24  14  65 E3        30.39R
HAYDEN         PTCLDY    21   9  58 E9        30.38R WCI  11
MEEKER         CLEAR     28  19  69 CALM      30.39R
MOUNT WERNER   NOT AVBL
STEAMBOAT SPGS PTCLDY    20  11  67 E3        30.38R
WALDEN         PTCLDY    14   5  67 SE8       30.33S WCI   3
$$

COZ006>008-011-060500-
...WEST CENTRAL VALLEYS...

CITY           SKY/WX    TMP DP  RH WIND       PRES   REMARKS
GRAND JUNCTION CLEAR     30  21  69 CALM      30.41R
MONTROSE       PTCLDY    30  22  72 SE8       30.43R WCI  22
EAGLE          CLEAR     27  19  74 VRB7      30.41R WCI  19
RIFLE          CLEAR     30  20  66 S3        30.41R
DELTA          PTCLDY    33  23  67 CALM      30.42R
NUCLA          PTCLDY    32  21  64 SE9       30.43S WCI  24
$$

COZ017>023-064>068-060500-
...SOUTHWEST COLORADO...

CITY           SKY/WX    TMP DP  RH WIND       PRES   REMARKS
DURANGO        CLEAR     26  16  65 NE5       30.36R WCI  20
CORTEZ         CLEAR     29  22  75 NE8       30.39S WCI  21
PAGOSA SPRINGS CLEAR     21   9  59 CALM      30.39R
TELLURIDE      CLEAR     23   8  53 SE6       30.41S WCI  15
WOLF CREEK PAS CLEAR     16  -4  41 N6        30.41R WCI   7
$$

COZ009-010-012-014-032>034-037-058>063-060500-
...CENTRAL COLORADO...

CITY           SKY/WX    TMP DP  RH WIND       PRES   REMARKS
ASPEN          CLEAR     20   9  62 S8        30.39R WCI  10
BUENA VISTA    PTCLDY    29   7  39 N17G23    30.33R WCI  16
COPPER MTN     PTCLDY    14   1  57 W18       30.34S WCI  -3
BERTHOUD PASS  NOT AVBL
COTTONWOOD PAS PTCLDY    30  -8  19 W12G25    30.33R WCI  21
GUNNISON       PTCLDY    16   7  67 NE6       30.44R WCI   7
KREMMLING      PTCLDY    16  10  79 CALM      30.40R
LEADVILLE      PTCLDY    11   1  64 NE6       30.35R WCI   1
SALIDA         PTCLDY    31  12  44 W6        30.41R WCI  26
SUNLIGHT       PTCLDY    18  12  79 CALM        N/A
WILKERSON PASS PTCLDY    19   0  42 W10       30.32R WCI   8
$$

COZ069>075-060500-
...SAN LUIS VALLEY/SANGRE DE CRISTO MOUNTAINS...

CITY           SKY/WX    TMP DP  RH WIND       PRES   REMARKS
ALAMOSA        CLEAR     23  14  68 NW6       30.36R WCI  16
LA VETA PASS   PTCLDY    19   9  63 MISG      30.30R
SAGUACHE       PTCLDY    28  10  47 NW10      30.38R WCI  19
$$

COZ035-036-038>040-060500-
...NORTHERN COLORADO FRONT RANGE...

CITY           SKY/WX    TMP DP  RH WIND       PRES   REMARKS
DENVER INTL AP PTCLDY    26  18  71 SW7       30.26R WCI  18
DMNS CITY PARK   N/A     26  16  65 SE3       30.27R
AURORA         PTCLDY    26  19  74 S7        30.26S WCI  18
FRONT RANGE AP NOT AVBL
ERIE MUNI ARPT PTCLDY    21  11  65 CALM      30.27S
BOULDER MUN AP PTCLDY    27  16  63 S5        30.26S WCI  21
CENTENNIAL     PTCLDY    27  17  66 S6        30.26R WCI  20
BROOMFIELD     MOCLDY    25   9  50 SW5       30.26S WCI  19
FORT COLLINS   PTCLDY    28  16  59 CALM      30.27S
LONGMONT       PTCLDY    24  14  65 CALM      30.29R
$$

COZ041-046-047-076>085-087-088-060500-
...PIKES PEAK/PALMER DIVIDE AND SOUTHERN FOOTHILLS...

CITY           SKY/WX    TMP DP  RH WIND       PRES   REMARKS
COLO. SPRINGS  PTCLDY    24  14  65 N6        30.28R WCI  17
A. F. ACADEMY  PTCLDY    20  13  73 N7        30.27R WCI  11
ELLICOTT       NOT AVBL
FALCON         PTCLDY    24  14  67 W5        30.27S WCI  18
FORT CARSON    PTCLDY    29  15  54 W3        30.27R
LIMON          PTCLDY    12   9  87 W5        30.28S WCI   4
MONUMENT HILL  CLEAR     27  12  54 SW9       30.26R WCI  17
TRINIDAD       CLEAR     31  24  75 W8        30.26R WCI  23
$$

COZ042>045-048>051-090-091-060500-
...NORTHEAST COLORADO...

CITY           SKY/WX    TMP DP  RH WIND       PRES   REMARKS
GREELEY ARPT   CLEAR     27  16  63 SW5       30.26S WCI  21
AKRON          CLEAR     28  17  63 S6        30.26S WCI  22
BURLINGTON     CLEAR     27  20  75 W9        30.28R WCI  18
WRAY           CLEAR     28  19  66 SW7       30.27S WCI  21
STERLING       CLEAR     25  18  74 W3        30.25S
HOLYOKE        CLEAR     28  18  64 W7        30.25S WCI  21
FORT MORGAN    CLEAR     26  18  73 W8        30.28R WCI  17
$$

COZ086-089-092>099-060500-
...SOUTHEAST COLORADO...

CITY           SKY/WX    TMP DP  RH WIND       PRES   REMARKS
PUEBLO         CLEAR     29  24  82 W3        30.29R
LA JUNTA       CLEAR     29  22  75 N9        30.26R WCI  20
LAMAR          CLEAR     29  20  69 NE6       30.26R WCI  23
SPRINGFIELD      N/A     28  23  81 S9        30.28R WCI  19
$$



USA.gov is the U.S. government's official web portal to all federal, state and local government web resources and services.